User: anonymous   Login
Location: Unspecified
(0.0000°N, 0.0000°E)
Time: 17:19:13
(UTC+00:00)
Language:

CZ-3B DEB - Orbit

View from above orbital plane
View from above orbital plane
View from above satellite
View from above satellite

Ground track
Ground track

The orbit data is extracted from the following two-line orbital elements,

1 40186U 11077K   20023.31700550 -.00000273  00000-0  00000+0 0  9995
2 40186  26.3112 313.0111 7333797 345.9051  34.5379  1.88719426 55751
Epoch (UTC): 23 January 2020 07:36:29
Eccentricity: 0.7333797
inclination: 26.3112°
perigee height: 996 km
apogee height: 41567 km
right ascension of ascending node: 313.0111°
argument of perigee: 345.9051°
revolutions per day: 1.88719426
mean anomaly at epoch: 34.5379°
orbit number at epoch: 5575

The dashed part of the orbit path shows where the satellite is in the earth's shadow,  

DLR